Location: Newark
(25.6108°S, 54.5803°W)
Time: 05:08:39
(UTC+00:00)

deb Explorer IX - Pass Details

Date: 28 October 2020
Orbit: 538 x 1104 km, 38.8° (Epoch: 29 November)

Event Time Altitude Azimuth Distance (km) Brightness Sun altitude
Rises 19:26:08 0° 303° (WNW) 3,592 ? 31.7°
Reaches altitude 10° 19:28:55 10° 303° (WNW) 2,563 ? 31.1°
Maximum altitude 19:35:00 90° 25° (NNE) 797 ? 29.7°
Drops below altitude 10° 19:40:09 10° 121° (ESE) 2,179 ? 28.6°
Sets 19:42:21 0° 121° (ESE) 3,020 ? 28.1°
